Location: Bayshore Village Mobile Home Park
(26.6945°N, 81.8642°W)
Time: 01:35:26
(UTC+00:00)

Hubble Space Telescope - Pass Details

Date: 26 October 2021
Orbit: 534 x 538 km, 28.5° (Epoch: 07 December)

Event Time Altitude Azimuth Distance (km) Brightness Sun altitude
Rises 23:56:08 0° 220° (SW) 2,655 5.1 -15.4°
Reaches altitude 10° 23:58:48 10° 204° (SSW) 1,767 3.8 -16.0°
Maximum altitude 00:01:53 21° 154° (SSE) 1,231 2.4 -16.7°
Enters shadow 00:02:41 20° 138° (SE) 1,273 2.3 -16.9°
